Location: Córrego Montividiu
(13.2496°S, 48.8603°W)
Time: 11:40:31
(UTC+00:00)

Meteor 1-27 Rocket - Pass Details

Date: 11 March 2026
Orbit: 830 x 907 km, 81.3° (Epoch: 22 April)

Event Time Altitude Azimuth Distance (km) Brightness Sun altitude
Rises 22:43:06 0° 6° (N) 3,514 6.8 -18.0°
Reaches altitude 10° 22:45:37 10° 11° (N) 2,576 6.0 -18.6°
Maximum altitude 22:51:19 52° 86° (E) 1,105 3.9 -20.0°
Drops below altitude 10° 22:57:00 10° 161° (SSE) 2,568 6.1 -21.4°
Sets 22:59:29 0° 166° (SSE) 3,502 6.9 -22.0°
